Home   Weather   Kansas City   Past weeks

Flag for USA Past Weather in Kansas City, Missouri, USA — Yesterday and Last 2 Weeks

Now
51 °F

Sunny.


Feels Like: 48 °F
Forecast: 39 / 54 °F
Wind: 8 mph from South

Location: Kansas City Downtown Airport

Current Time: Jan 21, 2017 at 1:44:04 pm

Latest Report: Jan 21, 2017 at 12:54 pm


Visibility: 10 mi

Pressure: 29.50 "Hg

Humidity: 71%

Dew Point: 42 °F

Location of Kansas CityLocation

Past Weather in Kansas City — Graph

°F

Kansas City Temperature Yesterday

Maximum temperature yesterday: 51 °F (at 12:54 pm)
Minimum temperature yesterday: 45 °F (at 11:54 pm)
Average temperature yesterday: 48 °F

High & Low Weather Summary for the Past Weeks

 TemperatureHumidityPressure
High65 °F (Jan 11, 1:54 pm)100% (Jan 15, 10:54 pm)30.77 "Hg (Jan 15, 10:54 pm)
Low6 °F (Jan 7, 3:54 am)39% (Jan 11, 2:54 pm)29.35 "Hg (Jan 10, 5:54 am)
Average35 °F79%30.09 "Hg
* Reported Jan 6 11:54 am — Jan 21 11:54 am, Kansas City, Weather by CustomWeather, © 2017

Note: Actual official high and low records may vary slightly from our data, if they occured in-between our weather recording intervals... More about our weather records

Advertising

Kansas City Weather History for the Previous 24 Hours

Scroll right to see more
 ConditionsComfort  
Time TempWeatherWind HumidityBarometerVisibility
11:54 am
Sat, Jan 21
47 °FScattered clouds.8 mph80%29.53 "Hg10 mi
11:32 am48 °FPartly sunny.8 mph83%29.54 "Hg10 mi
10:54 am45 °FLow clouds.13 mph90%29.56 "Hg8 mi
9:54 am42 °FFog.12 mph92%29.55 "Hg6 mi
9:32 am42 °FFog.12 mph92%29.54 "Hg6 mi
8:54 am41 °FFog.10 mph96%29.53 "Hg3 mi
8:37 am41 °FFog.7 mph100%29.51 "Hg3 mi
7:54 am41 °FFog.3 mph100%29.49 "Hg2 mi
7:21 am41 °FFog.5 mph100%29.48 "Hg2 mi
7:02 am41 °FFog.8 mph96%29.48 "Hg2 mi
6:32 am41 °FFog.6 mph100%29.47 "Hg1 mi
5:54 am41 °FFog.8 mph96%29.46 "Hg1 mi
5:06 am41 °FFog.7 mph96%29.44 "Hg5 mi
4:41 am42 °FFog.7 mph92%29.45 "Hg6 mi
3:54 am41 °FClear.7 mph93%29.43 "Hg8 mi
2:54 am41 °FClear.6 mph96%29.43 "Hg9 mi
2:11 am41 °FFog.5 mph96%29.42 "Hg3 mi
1:57 am40 °FFog.No wind97%29.42 "Hg1 mi
1:23 am38 °FFog.No wind100%29.41 "Hg0 mi
12:30 am41 °FFog.No wind96%29.43 "Hg6 mi
11:54 pm
Fri, Jan 20
45 °FFog.No wind93%29.44 "Hg6 mi
10:54 pm47 °FPassing clouds.No wind90%29.44 "Hg10 mi
9:54 pm50 °FLight rain. Passing clouds.6 mph89%29.49 "Hg7 mi
8:54 pm48 °FOvercast.5 mph93%29.46 "Hg9 mi
8:34 pm48 °FPartly cloudy.No wind93%29.46 "Hg8 mi
7:54 pm50 °FOvercast.No wind93%29.46 "Hg9 mi
6:54 pm51 °FMostly cloudy.5 mph92%29.46 "Hg10 mi
5:54 pm51 °FMostly cloudy.6 mph92%29.45 "Hg9 mi
4:54 pm51 °FMostly cloudy.7 mph92%29.43 "Hg9 mi
3:54 pm51 °FOvercast.7 mph92%29.42 "Hg8 mi
3:41 pm51 °FOvercast.8 mph92%29.43 "Hg8 mi
2:54 pm51 °FMostly cloudy.8 mph92%29.43 "Hg7 mi
2:02 pm51 °FMostly cloudy.8 mph92%29.44 "Hg8 mi
1:28 pm51 °FOvercast.9 mph92%29.45 "Hg7 mi
Weather by CustomWeather, © 2017

See weather overviewHow to use our weather pages